IRA144 UBBB-OIIE

Flight info

Callsign IRA144
Flight time N/A
Altitude 33000
Route BAMAK T440 NASIL N60 LALDA G670 RST
Aircraft A306/H-SDE3FGHIRWY/LB1

Departure

Time 2025-09-07 03:25
Airport Heydar Aliyev International Airport (UBBB)

Arrival

Time N/A
Airport Imam Khomeini International Airport (OIIE)
Time Latitude Longitude Altitude Speed Heading
2025-09-07 02:50 40.46720 50.05100 21 ft 0 kts 144°
2025-09-07 03:14 40.46728 50.05092 24 ft 3 kts 144°
2025-09-07 03:15 40.46776 50.05047 24 ft 2 kts 144°
2025-09-07 03:15 40.46778 50.05045 24 ft 1 kts 144°
2025-09-07 03:18 40.46756 50.05035 23 ft 5 kts 202°
2025-09-07 03:19 40.46659 50.04977 23 ft 8 kts 204°
2025-09-07 03:20 40.46550 50.04867 21 ft 13 kts 267°
2025-09-07 03:20 40.46545 50.04543 24 ft 18 kts 268°
2025-09-07 03:21 40.46534 50.04248 23 ft 14 kts 253°
2025-09-07 03:21 40.46305 50.04275 22 ft 23 kts 160°
2025-09-07 03:21 40.46142 50.04354 23 ft 25 kts 159°
2025-09-07 03:22 40.45842 50.04506 20 ft 21 kts 160°
2025-09-07 03:22 40.45658 50.04409 20 ft 15 kts 250°
2025-09-07 03:23 40.45702 50.04111 18 ft 23 kts 347°
2025-09-07 03:24 40.46791 50.03765 15 ft 132 kts 346°
2025-09-07 03:24 40.49050 50.03024 402 ft 187 kts 347°
2025-09-07 03:25 40.51768 50.02163 1333 ft 218 kts 349°
2025-09-07 03:25 40.54883 50.01219 2542 ft 241 kts 348°
2025-09-07 03:25 40.56581 50.00712 3020 ft 258 kts 350°
2025-09-07 03:26 40.60031 50.01754 4373 ft 272 kts 41°
2025-09-07 03:26 40.61268 50.06494 5384 ft 296 kts 96°
2025-09-07 03:27 40.60382 50.14489 7366 ft 311 kts 99°
2025-09-07 03:28 40.59763 50.20211 8766 ft 321 kts 99°
2025-09-07 03:28 40.59139 50.26111 9999 ft 335 kts 99°
2025-09-07 03:29 40.57963 50.32061 11255 ft 340 kts 116°
2025-09-07 03:29 40.55880 50.37717 12469 ft 348 kts 118°
2025-09-07 03:29 40.54696 50.40508 13073 ft 350 kts 127°
2025-09-07 03:30 40.50931 50.44399 14210 ft 347 kts 164°
2025-09-07 03:30 40.46242 50.45108 15356 ft 343 kts 184°
2025-09-07 03:31 40.41436 50.45060 16466 ft 348 kts 184°
2025-09-07 03:32 40.34074 50.45030 18100 ft 357 kts 184°
2025-09-07 03:32 40.31581 50.45028 18580 ft 360 kts 184°
2025-09-07 03:32 40.26567 50.45025 19485 ft 365 kts 184°
2025-09-07 03:33 40.21530 50.44441 20363 ft 361 kts 203°
2025-09-07 03:33 40.17114 50.41445 21293 ft 358 kts 215°
2025-09-07 03:34 40.12794 50.38111 22183 ft 363 kts 215°
2025-09-07 03:34 40.08428 50.34771 23098 ft 368 kts 215°
2025-09-07 03:35 40.01736 50.29682 24288 ft 375 kts 215°
2025-09-07 03:36 39.90351 50.21067 26356 ft 378 kts 215°
2025-09-07 03:39 39.66269 50.14464 28988 ft 427 kts 182°
2025-09-07 03:40 39.45211 50.15929 30835 ft 439 kts 183°
2025-09-07 03:42 39.20549 50.17469 32540 ft 449 kts 184°
2025-09-07 03:45 38.92311 50.19229 32957 ft 453 kts 185°
2025-09-07 03:46 38.70360 50.20584 32953 ft 452 kts 185°
2025-09-07 03:48 38.45286 50.22123 32954 ft 452 kts 185°
2025-09-07 03:50 38.20197 50.23651 32947 ft 452 kts 185°
2025-09-07 03:53 37.91900 50.25413 32923 ft 452 kts 185°